FW0442 Weather Reports


time (UTC)temp
F
wind
direction
speed
knots
gust
knots
rain 1hr
in
rain 24hr
in
rain mn
in
humidity
%
barometer
mb
20260508034303 47 138 0.0 0.9 0.00 0.00 0.00 88 1014.7
20260508031302 47 138 0.0 0.9 0.00 0.00 0.00 89 1014.6
20260508021302 49 138 0.0 1.7 0.00 0.00 0.00 84 1014.5
20260508011302 48 157 0.0 0.0 0.00 0.00 0.00 92 1014.7
20260508004302 49 157 0.0 0.0 0.00 0.00 0.00 93 1014.8
20260508001304 48 157 0.0 0.0 0.00 0.00 0.00 92 1014.6
20260507234303 49 157 0.0 0.0 0.00 0.00 0.00 92 1014.7
20260507231302 48 157 0.0 0.0 0.00 0.00 0.00 92 1014.7
20260507224302 49 157 0.0 0.0 0.00 0.00 0.00 90 1014.7
20260507221301 50 157 0.0 0.0 0.00 0.00 0.00 88 1014.8
20260507214303 49 157 0.0 0.0 0.00 0.00 0.00 89 1014.8
20260507211302 50 157 0.0 0.0 0.00 0.00 0.00 86 1014.6
20260507204302 50 157 0.0 0.0 0.00 0.00 0.00 87 1014.5
20260507201301 51 157 0.0 1.7 0.00 0.00 0.00 85 1014.2
20260507194301 51 149 0.9 0.9 0.00 0.00 0.00 83 1014.1
20260507191258 53 125 0.0 0.9 0.00 0.00 0.00 81 1014.0
20260507184254 54 124 0.0 1.7 0.00 0.00 0.00 77 1014.0
20260507181253 55 171 0.9 3.5 0.00 0.00 0.00 73 1013.8
20260507174246 56 152 1.7 4.3 0.00 0.00 0.00 69 1013.6
20260507171243 57 135 1.7 5.2 0.00 0.00 0.00 65 1013.6
20260507164239 58 200 1.7 6.1 0.00 0.00 0.00 65 1013.6
20260507161234 58 145 2.6 7.8 0.00 0.00 0.00 63 1013.7
20260507154234 58 193 1.7 7.8 0.00 0.00 0.00 64 1013.6
20260507151230 58 180 0.9 5.2 0.00 0.00 0.00 67 1013.8
20260507144230 58 172 1.7 7.8 0.00 0.00 0.00 60 1013.9
20260507134232 58 151 2.6 6.1 0.00 0.00 0.00 60 1014.2
20260507131230 58 159 1.7 5.2 0.00 0.00 0.00 62 1014.3
20260507124232 59 147 1.7 7.8 0.00 0.00 0.00 63 1014.4
20260507121231 59 154 3.5 8.7 0.00 0.00 0.00 64 1014.5
20260507114232 58 172 1.7 7.8 0.00 0.00 0.00 70 1014.7
20260507111231 56 164 1.7 4.3 0.00 0.00 0.00 74 1015.0
20260507101231 51 259 0.0 2.6 0.00 0.00 0.00 83 1015.3
20260507094232 49 24 0.0 2.6 0.00 0.00 0.00 85 1015.4
20260507084232 46 147 0.0 0.9 0.00 0.00 0.00 90 1015.4
20260507081231 45 193 0.0 1.7 0.00 0.00 0.00 90 1015.3
20260507074232 44 66 0.0 1.7 0.00 0.00 0.00 92 1015.2
20260507071231 44 140 0.0 1.7 0.00 0.00 0.00 92 1015.2
20260507064231 43 312 0.0 0.9 0.00 0.00 0.00 93 1015.0
20260507054232 42 80 0.0 2.6 0.00 0.00 0.00 94 1014.9
20260507041232 42 1 0.0 1.7 0.00 0.00 0.00 94 1014.6